Location: Miles
(41.4492°N, 81.6087°W)
Time: 21:31:15
(UTC+00:00)

Vanguard 2 Rocket - Pass Details

Date: 25 September 2024
Orbit: 553 x 3298 km, 32.9° (Epoch: 11 October)

Event Time Altitude Azimuth Distance (km) Brightness Sun altitude
Rises 02:53:55 0° 207° (SSW) 2,925 - -38.1°
Reaches altitude 10° 02:56:41 10° 185° (S) 2,229 - -38.5°
Maximum altitude 02:59:59 17° 144° (SE) 2,086 - -39.0°
Drops below altitude 10° 03:04:13 10° 106° (ESE) 3,006 - -39.6°
Sets 03:08:54 0° 89° (E) 4,523 - -40.2°
